This demonstration page uses our WeatherBlox Daily Observations layout. Learn more.

Left ArrowRight Arrow

Hourly Observations for May 15, 2016

Temp ( °F °C ) Dew Point ( °F °C ) Humidity (%) Winds ( mph kmh ) Pressure ( in mb ) Visibility ( mi km ) Precip ( " mm )
12:53 am 00:53 Cloudy 46 7.8 36 2.2 68 68 WSW 6 9 30.09 1019 10 16 N/A
1:53 am 01:53 Cloudy 45 7.2 37 2.8 74 74 WSW 5 7 30.09 1019 10 16 N/A
2:53 am 02:53 Cloudy 46 7.8 37 2.8 71 71 WSW 6 9 30.08 1019 10 16 N/A
3:53 am 03:53 Cloudy 45 7.2 38 3.3 77 77 SW 5 7 30.06 1018 10 16 N/A
4:53 am 04:53 Cloudy 45 7.2 38 3.3 77 77 WSW 3 6 30.07 1018 10 16 N/A
5:53 am 05:53 Mostly Cloudy 44 6.7 38 3.3 79 79 W 6 9 30.08 1019 10 16 N/A
6:53 am 06:53 Mostly Sunny 43 6.1 38 3.3 82 82 WSW 6 9 30.09 1019 10 16 N/A
7:53 am 07:53 Sunny 46 7.8 39 3.9 77 77 W 8 13 30.11 1020 10 16 N/A
8:53 am 08:53 Sunny 49 9.4 39 3.9 69 69 WNW 7 11 30.11 1020 10 16 N/A
9:53 am 09:53 Partly Cloudy 50 10 35 1.7 57 57 WNW 14 22 30.12 1020 10 16 N/A
10:53 am 10:53 Mostly Cloudy 52 11.1 33 0.6 49 49 W 13 20 30.13 1020 10 16 N/A
11:53 am 11:53 Mostly Cloudy 53 11.7 33 0.6 47 47 W 13 20 30.13 1020 10 16 N/A
12:53 pm 12:53 Mostly Cloudy 55 12.8 31 -0.6 40 40 WNW 14 22 30.13 1020 10 16 N/A
1:53 pm 13:53 Mostly Cloudy 57 13.9 33 0.6 41 41 WNW 10 17 30.11 1020 10 16 N/A
2:53 pm 14:53 Mostly Cloudy 57 13.9 32 undefined 39 39 WNW 16 26 30.11 1020 10 16 N/A
3:53 pm 15:53 Mostly Cloudy 59 15 33 0.6 38 38 WNW 16 26 30.11 1020 10 16 N/A
4:53 pm 16:53 Mostly Cloudy 59 15 33 0.6 38 38 W 14 22 30.11 1020 10 16 N/A
5:53 pm 17:53 Partly Cloudy with Light Rain 59 15 31 -0.6 35 35 W 8 13 30.11 1020 10 16 N/A
6:53 pm 18:53 Partly Cloudy 57 13.9 29 -1.7 34 34 WNW 16 26 30.12 1020 10 16 N/A
7:53 pm 19:53 Sunny 55 12.8 29 -1.7 37 37 NW 15 24 30.13 1020 10 16 N/A
8:53 pm 20:53 Clear 51 10.6 32 undefined 48 48 N 13 20 30.17 1022 10 16 N/A
9:53 pm 21:53 Clear 47 8.3 26 -3.3 44 44 N 15 24 30.22 1023 10 16 N/A
10:53 pm 22:53 Clear 44 6.7 27 -2.8 51 51 NNW 5 7 30.25 1024 10 16 N/A
11:53 pm 23:53 Clear 41 5 29 -1.7 62 62 N 5 7 30.25 1024 10 16 N/A

Powered by AerisWeather